#timestamp,LO_Frequency,Hit,StdDev 
1663621215.0,286046998.5,N
1663621215.9,286046998.5,N
1663621235.8,286046997.9,N
1663621255.6,286047000.3,N
1663621275.4,286047003.4,N
1663621295.3,286047010.2,N
1663621315.1,286047012.4,N
1663621335.8,286047014.3,N
1663621355.7,286047012.4,N
1663621375.5,286047011.9,N
1663621395.3,286047012.7,N
1663621415.2,286047013.9,N
1663621435.0,286047013.2,N
1663621435.9,286047013.2,N
1663621455.8,286047012.3,N
1663621475.6,286047004.7,N
1663621495.4,286047002.5,N
1663621515.3,286046997.3,N
1663621535.1,286046994.9,N
1663621555.8,286046997.0,N
1663621575.7,286046999.7,N
1663621595.5,286047003.2,N
1663621615.4,286047001.5,N
1663621635.2,286047000.8,N
1663621655.0,286047000.5,N
1663621655.9,286047000.5,N
1663621675.8,286047000.3,N
1663621695.6,286046997.2,N
1663621715.4,286046997.2,N
1663621735.3,286046994.1,N
1663621755.1,286046992.2,N
1663621775.9,286046990.1,N
1663621795.7,286046998.4,N
1663621815.5,286047000.0,N
1663621835.4,286047003.5,N
1663621855.2,286047005.1,N
1663621875.0,286047007.3,N
1663621875.9,286047007.3,N
1663621895.8,286047000.5,N
1663621915.6,286046997.6,N
1663621935.5,286046999.6,N
1663621955.3,286047006.9,N
1663621975.1,286047005.5,N
1663621995.9,286046999.7,N
1663622015.7,286046996.6,N
1663622035.5,286047000.1,N
1663622055.4,286047006.0,N
1663622075.2,286047008.5,N
1663622095.1,286047014.0,Y
1663622096.0,286047014.0,P
1663622115.8,286047012.4,N
1663622135.6,286047006.0,N
1663622155.5,286046998.4,N
1663622175.3,286046996.9,N
1663622195.2,286046997.1,N
1663622215.9,286047000.7,N
1663622235.7,286047003.8,N
1663622255.6,286047006.4,N
1663622275.4,286047008.7,N
1663622295.2,286047011.7,N
1663622315.1,286047007.1,N
1663622316.0,286047007.1,N
1663622335.8,286047002.2,N
1663622355.6,286047000.5,N
1663622375.5,286047000.8,N
1663622395.3,286047005.6,N
1663622415.2,286047009.2,N
1663622435.9,286047001.5,N
1663622455.7,286047006.5,N
1663622475.6,286047012.5,N
1663622495.4,286047017.1,Y
1663622515.2,286047008.6,P
1663622535.1,286047003.8,N
1663622536.0,286047003.8,N
1663622555.8,286047002.7,N
1663622575.7,286047004.0,N
1663622595.5,286046999.2,N
1663622615.3,286046993.8,N
1663622635.2,286046996.2,N
1663622655.0,286046993.4,N
1663622655.9,286046993.4,N
1663622675.8,286046990.5,N
1663622695.6,286046994.4,N
1663622715.5,286046993.3,N
1663622735.3,286046994.5,N
1663622755.1,286046992.3,N
1663622775.9,286046996.1,N
1663622795.7,286046995.5,N
1663622815.6,286046996.0,N
1663622835.4,286046995.4,N
1663622855.2,286046995.5,N
1663622875.1,286046996.5,N
1663622876.0,286046996.5,N
1663622895.8,286047002.5,N
1663622915.7,286047005.9,N
1663622935.5,286047000.4,N
1663622955.3,286047001.0,N
1663622975.2,286047004.2,N
1663622995.0,286047002.2,N
1663622995.9,286047002.2,N
1663623015.8,286047011.9,N
1663623035.6,286047002.8,N
1663623055.4,286047004.3,N
1663623075.3,286047002.0,N
1663623095.1,286047000.5,N
1663623096.0,286047000.5,N
1663623115.8,286047002.3,N
1663623135.7,286047002.8,N
1663623155.5,286047002.9,N
1663623175.4,286047010.7,N
1663623195.2,286047009.9,N
1663623215.0,286047008.4,N
1663623215.9,286047008.4,N
1663623235.8,286047006.7,N
1663623255.6,286047009.1,N
1663623275.4,286047007.5,N
1663623295.3,286047003.0,N
1663623315.1,286047000.2,N
1663623335.9,286047000.2,N
1663623355.7,286047004.9,N
1663623375.5,286047005.0,N
1663623395.4,286047009.2,N
1663623415.2,286047010.4,N
1663623435.0,286047007.1,N
1663623435.9,286047007.1,N
1663623455.8,286047002.9,N
1663623475.6,286047005.0,N
1663623495.5,286047007.4,N
1663623515.3,286047007.6,N
1663623535.1,286047007.0,N
1663623555.9,286047017.0,Y
1663623575.7,286047004.9,P
1663623595.5,286047012.4,P
1663623615.4,286047011.9,P
1663623635.2,286047009.4,N
1663623655.1,286047013.9,Y
1663623656.0,286047013.9,P
1663623675.8,286046998.4,N
1663623695.6,286046997.3,N
1663623715.5,286046995.4,N
1663623735.3,286046994.1,N
1663623755.2,286046991.7,N
1663623775.9,286046989.2,N
1663623795.7,286046994.3,N
1663623815.6,286046990.9,N
1663623835.4,286046992.7,N
1663623855.2,286046992.7,N
1663623875.1,286046990.4,N
1663623876.0,286046990.4,N
1663623895.8,286046991.6,N
1663623915.7,286046990.1,N
1663623935.5,286046992.4,N
1663623955.4,286046994.2,N
1663623975.2,286046996.5,N
1663623995.0,286047001.0,N
1663623995.9,286047001.0,N
1663624015.8,286047000.8,N
1663624035.6,286046998.0,N
1663624055.4,286046996.4,N
1663624075.3,286047000.1,N
1663624095.1,286047001.2,N
1663624115.9,286047000.4,N
1663624135.7,286046999.0,N
1663624155.5,286046999.7,N
1663624175.4,286046999.0,N
1663624195.2,286046998.2,N
1663624215.0,286046999.0,N
1663624215.9,286046999.0,N
1663624235.8,286046996.9,N
1663624255.6,286046999.0,N
1663624275.4,286047000.6,N
1663624295.3,286047000.7,N
1663624315.1,286047002.2,N
1663624335.9,286047003.6,N
1663624355.7,286047001.7,N
1663624375.5,286047004.3,N
1663624395.4,286047007.5,N
1663624415.2,286047007.5,N
1663624435.0,286047005.1,N
1663624435.9,286047005.1,N
1663624455.8,286047003.6,N
1663624475.6,286047003.3,N
1663624495.5,286047005.5,N
1663624515.3,286047005.9,N
1663624535.1,286047004.7,N
1663624555.9,286047003.9,N
1663624575.7,286047005.2,N
1663624595.5,286047008.9,N
1663624615.4,286047014.6,Y
1663624635.2,286047009.1,P
1663624655.1,286047002.2,N
1663624656.0,286047002.2,N
1663624675.8,286047005.1,N
1663624695.3,286047007.2,N
1663624715.1,286047015.6,Y
1663624735.9,286047011.8,P
1663624755.7,286047010.8,P
1663624775.5,286046999.7,N
1663624795.4,286046998.2,N
